Regional Weather Roundup
Issued by NWS Green Bay, WI

Home | Current Version | Previous Version | Graphics & Text | Print | Product List | Glossary Off
Versions: 1 2 3 4 5 6 7 8 9 10 11 12 13 14 15 16 17 18 19 20 21 22 23 24 25 26 27 28 29 30 31 32 33 34 35 36 37 38 39 40 41 42 43 44 45 46 47 48 49 50

830
ASUS43 KGRB 160511
RWRGRB

NORTH-CENTRAL AND NORTHEAST WISCONSIN REGIONAL WEATHER ROUNDUP
NATIONAL WEATHER SERVICE GREEN BAY WI
1100 PM CST FRI DEC 15 2017

WIZ005-009-010>012-018-019-160600-
NORTH CENTRAL WISCONSIN

CITY           SKY/WX    TMP DP  RH WIND       PRES   REMARKS
IRONWOOD       CLOUDY     7   4  87 CALM      29.79R
MANITOWISH WTR CLOUDY     7   6  95 CALM      29.75S
ARBOR VITAE    CLOUDY    10   8  89 CALM      29.76R
EAGLE RIVER    CLOUDY     8   4  84 CALM      29.76R
LAND O LAKES   CLOUDY     7   4  88 CALM      29.78R
RHINELANDER    CLOUDY     8   5  87 CALM      29.76R
PHILLIPS       CLOUDY    12   8  84 CALM      29.75R
ANTIGO         CLOUDY    10   8  89 CALM      29.78R
TOMAHAWK       CLOUDY    10   7  89 CALM      29.77R
MERRILL        CLOUDY    13  10  88 CALM      29.78S
$$

WIZ013-073-160600-
NORTHEAST WISCONSIN

CITY           SKY/WX    TMP DP  RH WIND       PRES   REMARKS
IRON MOUNTAIN  CLOUDY     7   3  84 CALM      29.80R
MARINETTE      CLOUDY    13   6  74 CALM      29.87R
OCONTO         CLOUDY    10   6  84 CALM      29.86R
$$

WIZ017-030-035>037-045-160600-
CENTRAL WISCONSIN

CITY           SKY/WX    TMP DP  RH WIND       PRES   REMARKS
MEDFORD        LGT SNOW  15  11  87 SE3       29.75S
WAUSAU         LGT SNOW  14  11  87 E5        29.77S FOG     WCI   6
MOSINEE        NOT AVBL
MARSHFIELD     LGT SNOW  18  15  88 E5        29.75S FOG
WISC RAPIDS    LGT SNOW  20  15  81 E3        29.80S
STEVENS POINT  LGT SNOW  16  14  90 E3        29.80S
WAUPACA        LGT SNOW  22  15  74 E5        29.83R
SHAWANO        CLOUDY    15  11  83 CALM      29.84S
CLINTONVILLE   NOT AVBL
WAUTOMA        LGT SNOW  21  17  84 E3        29.82S FOG
$$

WIZ038-039-048-051-160600-
FOX VALLEY

CITY           SKY/WX    TMP DP  RH WIND       PRES   REMARKS
NWS GREEN BAY  CLOUDY    16   9  74 NE3       29.85S
APPLETON       FLURRIES  19  10  68 CALM      29.81S
OSHKOSH        LGT SNOW  21  17  84 E3        29.82S FOG
FOND DU LAC    LGT SNOW  24  18  77 NE6       29.82S
$$

WIZ022-050-052-160600-
EAST CENTRAL WISCONSIN

CITY           SKY/WX    TMP DP  RH WIND       PRES   REMARKS
EPHRAIM        CLOUDY    17   8  67 NW5       29.84R WCI  10
WASHINGTON ISL CLOUDY    18   7  62 NW6       29.84R WCI   9
STURGEON BAY   CLOUDY    18   9  68 NW7       29.86R WCI   9
MANITOWOC      FLURRIES  17  11  77 CALM      29.86R
SHEBOYGAN      FLURRIES  20  16  84 NE3       29.84S
$$

LMZ563-521-522-541>543-160600-
LAKESHORE

STATION/POSITION TIME  TEMP    WIND        PRES    VSBY  WAVE
                       AIR SEA DIR/SP/G                  HT/PER
                 (UTC) (F)     (DEG/KT/KT) (MB)    (MI)  (FT/S)
SHEBOYGAN LKSHOR 0500   23     330/  3/  3 1011.7R
KEWAUNEE LKSHORE 0448   14     320/  3/  4 1010.4R
NORTHPORT PIER   0503   20     300/  7/ 12 1010.8
MENOMINEE LKSHOR 0448   16     290/  5/  8 1010.9R
$$




USA.gov is the U.S. government's official web portal to all federal, state and local government web resources and services.